Location: Prague
(50.0830°N, 14.4670°E)
Time: 13:48:45
(UTC+01:00)

STARLINK-1721 - Visible Passes

Search period start: 16 January 2021 00:00
Search period end: 26 January 2021 00:00
Orbit: 546 x 548 km, 53.1° (Epoch: 16 January)

Date Brightness Start Highest point End Pass type
(mag) Time Alt. Az. Time Alt. Az. Time Alt. Az.
16 Jan 6.5 05:23:21 10° SSE 05:25:23 13° SE 05:27:25 10° ESE visible
16 Jan 4.4 07:00:10 10° SW 07:04:13 56° SSE 07:08:15 10° ENE visible
17 Jan 6.3 05:16:13 10° S 05:18:55 17° SE 05:21:39 10° E visible
17 Jan 4.0 06:53:46 10° SW 06:57:52 67° SSE 07:01:59 10° ENE visible
18 Jan 5.8 05:10:32 16° S 05:12:25 22° SE 05:15:35 10° E visible
18 Jan 3.7 06:47:21 10° WSW 06:51:29 80° SSE 06:55:37 10° ENE visible
19 Jan 5.3 05:05:03 25° SSE 05:05:51 27° SE 05:09:21 10° E visible
19 Jan 3.6 06:40:54 10° WSW 06:45:02 89° NNW 06:49:11 10° ENE visible
20 Jan 5.0 04:59:18 33° SE 04:59:18 33° SE 05:02:59 10° ENE visible
20 Jan 3.6 06:34:55 13° WSW 06:38:33 79° NNW 06:42:41 10° ENE visible
21 Jan 5.0 04:53:20 37° ESE 04:53:20 37° ESE 04:56:29 10° ENE visible
21 Jan 3.6 06:28:56 17° W 06:31:59 71° NNW 06:36:07 10° ENE visible
22 Jan 5.1 04:47:11 35° E 04:47:11 35° E 04:49:53 10° ENE visible
22 Jan 3.7 06:22:46 21° W 06:25:22 65° NNW 06:29:30 10° ENE visible
23 Jan 5.3 04:40:53 31° E 04:40:53 31° E 04:43:13 10° ENE visible
23 Jan 3.7 06:16:27 25° W 06:18:42 60° N 06:22:48 10° ENE visible
24 Jan 5.6 04:34:27 27° ENE 04:34:27 27° ENE 04:36:28 10° ENE visible
24 Jan 3.8 06:10:01 28° WNW 06:11:58 57° N 06:16:03 10° ENE visible
25 Jan 5.8 04:27:54 24° ENE 04:27:54 24° ENE 04:29:37 10° ENE visible
25 Jan 3.9 06:03:28 31° WNW 06:05:09 56° N 06:09:14 10° ENE visible
